OPS 4682 DEB, 38449

Orbit data source: Space-Track

OPS 4682 DEB, 38449 is space debris in LEO originally from a launch on Sat, 03 Apr 1965 UTC launched from the Air Force Western Test Range (AFWTR). Debris objects in space refer to the collection of defunct objects orbiting the Earth. Examples of debris include non-operational satellites, rocket bodies, and fragments generated from explosions, collisions, or faulty payload assembly.

Loading next visibility...
Identifier
38449, 1965-027FE
Orbit
LEO
Country
Flag of USUS
Related business
Manufacturer
Unknown
Mission
Spacecraft
Bus & Motor
Unknown
Mass
Unknown
Launch date (UTC)
1965-04-03 (61 years ago)
Launch vehicle
Unknown
Launch site
Air Force Western Test Range (AFWTR)
Object type
Payload
Rocket body
Debris
Shape & HBR
Unknown shape, 0.1 m
Radar Cross Section
Medium (>0.1 m² and <1 m²)

Expand to show TLE details & history
Last TLE update: 2 days ago

TLE from 2 days ago
0 OPS 4682 DEB
1 38449U 65027FE  26252.62418397  .00000245  00000-0  84459-3 0  9999
2 38449  90.2543  12.9179 0029520 306.7482  53.0928 12.95295816598568
Epoch: 2026-09-09T14:58Z
TLE epoch observation values (Epoch: 2026-09-09T14:58:49.495Z)
Latitude
0.00005°
Longitude
159.5381°
Altitude
1,269.914 km
Speed
7.227 km/s
True Right ascension
00h 51m 40s
True Declination
0° 00' 00"
Sunlit
Object was in full shadow at epoch
Visualization orbit readout
Latitude
Unknown
Longitude
Unknown
Altitude
Unknown
Speed
Unknown
Apparent Right ascension
Unknown
Apparent Declination
Unknown
Sunlit
N/A
Visualization observer readout
Local Sidereal Time
15:33:20
Azimuth
Unknown
Elevation
Unknown
Doppler factor
Unknown
Orbital elements
Apogee altitude
1,300.308 km
Perigee altitude
1,255.108 km
Semi-major axis
7,655.845 km
Eccentricity
0.00295
Inclination
90.2543°
RAAN
12.9179°
Arg. of periapsis
306.7482°
True anomaly
53.36389°
Mean anomaly
53.0928°
Eccentric anomaly
53.22828°
Mean motion
3.24006 °/min
Orbital period
111.11 mins
BSTAR
0.00084459
Loading maneuver chart data...
Computing Atmospheric mass density...
Loading historical data...
Loading historical data...
Loading historical data...
Loading historical data...
Loading historical data...
Loading historical data...
Loading historical data...

Documentation

Showing up to 5 results
|